EIN991 EGPK-EIDW

Flight info

Callsign EIN991
Flight time N/A
Altitude 25000
Route PKE02 DCT LANAK DCT GOW30 DCT GOW35 DCT EDN/N0439F240 DCT TLA DCT TRN P600 BLACA P620 NIMAT NIMAT4L
Aircraft A333/H-SDE3GHIJ2J3J5M1RVWXY/LB2D1

Departure

Time 2026-04-26 19:24
Airport Glasgow Prestwick Airport (EGPK)

Arrival

Time N/A
Airport Dublin Airport (EIDW)
Time Latitude Longitude Altitude Speed Heading
2026-04-26 19:20 55.51522 -4.61524 41 ft 0 kts 346°
2026-04-26 19:22 55.51523 -4.61524 41 ft 1 kts 346°
2026-04-26 19:22 55.51587 -4.61506 44 ft 12 kts 30°
2026-04-26 19:23 55.51606 -4.61394 47 ft 10 kts 109°
2026-04-26 19:23 55.51511 -4.61094 49 ft 59 kts 121°
2026-04-26 19:23 55.51159 -4.60084 55 ft 133 kts 121°
2026-04-26 19:23 55.50604 -4.58494 521 ft 161 kts 120°
2026-04-26 19:24 55.49947 -4.56650 1174 ft 186 kts 120°
2026-04-26 19:24 55.49279 -4.54742 2197 ft 177 kts 121°
2026-04-26 19:24 55.48097 -4.50959 3390 ft 183 kts 119°
2026-04-26 19:25 55.47507 -4.48887 3885 ft 193 kts 118°
2026-04-26 19:25 55.47100 -4.47461 4233 ft 201 kts 118°
2026-04-26 19:25 55.46502 -4.44220 4966 ft 221 kts 101°
2026-04-26 19:25 55.46380 -4.41393 5510 ft 238 kts 84°
2026-04-26 19:26 55.46989 -4.38581 5975 ft 256 kts 56°
2026-04-26 19:26 55.48113 -4.36081 6691 ft 272 kts 49°
2026-04-26 19:26 55.49404 -4.33508 7219 ft 284 kts 48°
2026-04-26 19:26 55.50729 -4.30902 7761 ft 288 kts 48°
2026-04-26 19:27 55.52083 -4.28257 8311 ft 291 kts 48°
2026-04-26 19:27 55.53447 -4.25607 8869 ft 293 kts 48°
2026-04-26 19:27 55.54833 -4.22931 9421 ft 298 kts 47°
2026-04-26 19:27 55.56244 -4.20214 10010 ft 302 kts 48°
2026-04-26 19:28 55.57700 -4.17415 10550 ft 316 kts 48°
2026-04-26 19:28 55.59226 -4.14494 11074 ft 331 kts 47°
2026-04-26 19:28 55.60833 -4.11442 11617 ft 344 kts 45°
2026-04-26 19:28 55.62816 -4.08930 12075 ft 358 kts 25°
2026-04-26 19:29 55.65165 -4.07774 12373 ft 347 kts
2026-04-26 19:29 55.67489 -4.07780 12495 ft 325 kts 355°
2026-04-26 19:29 55.69706 -4.08039 12339 ft 315 kts 354°
2026-04-26 19:29 55.71878 -4.08326 12044 ft 310 kts 354°
2026-04-26 19:30 55.74012 -4.08621 11727 ft 306 kts 354°
2026-04-26 19:30 55.76129 -4.08908 11406 ft 303 kts 354°
2026-04-26 19:30 55.78223 -4.09194 11086 ft 300 kts 354°